Volver al catálogo

STARLINK-3831

ActivoComunicacionesVLEO
NORAD 52332·PAYLOAD·🇺🇸 United States

Lanzado Apr 29, 2022 desde Cape Canaveral Space Force Station

Loading…

Próximos Pases (próximas 24 horas)

TLE

ActualizadoSource: CelesTrak SupGP

Época: Sep 15, 2026, 01:35 UTC

1 52332C 22045B   26258.06645833  .00670390  00000+0  21159-1 0  2587
2 52332  53.1605  76.7932 0001146  77.9166 154.3914 15.31964535    19

Sigue STARLINK-3831 en tiempo real con AllMySat

Download on the App Store